Location: ??????????
(54.8537°N, 38.8755°E)
Time: 22:10:37
(UTC+00:00)

Tiros 1 despin weight - Pass Details

Date: 14 September 2024
Orbit: 572 x 613 km, 48.2° (Epoch: 13 October)

Event Time Altitude Azimuth Distance (km) Brightness Sun altitude
Exits shadow 00:31:55 10° 160° (SSE) 2,005 ? -19.8°
Reaches altitude 10° 00:32:14 10° 156° (SSE) 1,971 ? -19.7°
Maximum altitude 00:33:21 11° 142° (SE) 1,918 ? -19.6°
Drops below altitude 10° 00:34:29 10° 127° (SE) 1,975 ? -19.5°
Sets 00:38:37 0° 91° (E) 2,887 ? -19.0°
